Location: 81360 Arifat, France
(43.7204°N, 2.3408°E)
Time: 11:55:11
(UTC+01:00)

ARIANE 6 FM1 Upper Stage - Visible Passes

Search period start: 09 November 2025 00:00
Search period end: 19 November 2025 00:00
Orbit: 523 x 612 km, 62.0° (Epoch: 08 November)

Date Brightness Start Highest point End Pass type
(mag) Time Alt. Az. Time Alt. Az. Time Alt. Az.
09 Nov 4.3 18:46:54 10° W 18:50:22 28° NW 18:53:50 10° NNE visible
10 Nov 4.7 18:48:10 10° W 18:51:15 21° NW 18:54:19 10° NNE visible
11 Nov 5.0 18:49:36 10° WNW 18:52:08 16° NNW 18:54:42 10° N visible
12 Nov 5.1 18:51:14 10° WNW 18:53:04 13° NNW 18:54:54 10° N visible
13 Nov 5.3 18:53:34 10° NNW 18:54:02 10° NNW 18:54:29 10° NNW visible
